Year,Month,Day,Hour,Minute,Value (Times are PST for windgust in km/hr)
2016,08,27,00,00,6.40
2016,08,27,00,01,9.60
2016,08,27,00,02,4.80
2016,08,27,00,03,3.20
2016,08,27,00,04,1.60
2016,08,27,00,06,1.60
2016,08,27,00,07,1.60
2016,08,27,00,08,3.20
2016,08,27,00,09,3.20
2016,08,27,00,10,4.80
2016,08,27,00,11,4.80
2016,08,27,00,12,9.60
2016,08,27,00,13,8.10
2016,08,27,00,14,3.20
2016,08,27,00,15,8.10
2016,08,27,00,16,4.80
2016,08,27,00,17,3.20
2016,08,27,00,18,1.60
2016,08,27,00,19,1.60
2016,08,27,00,23,3.20
2016,08,27,00,24,4.80
2016,08,27,00,25,6.40
2016,08,27,00,26,3.20
2016,08,27,00,27,4.80
2016,08,27,00,28,3.20
2016,08,27,00,29,4.80
2016,08,27,00,30,3.20
2016,08,27,00,31,9.60
2016,08,27,00,32,9.60
2016,08,27,00,33,3.20
2016,08,27,00,34,3.20
2016,08,27,00,35,3.20
2016,08,27,00,36,3.20
2016,08,27,00,37,3.20
2016,08,27,00,38,3.20
2016,08,27,00,39,1.60
2016,08,27,00,43,1.60
2016,08,27,00,44,1.60
2016,08,27,00,45,1.60
2016,08,27,00,46,1.60
2016,08,27,00,47,3.20
2016,08,27,00,48,1.60
2016,08,27,00,52,1.60
2016,08,27,00,54,1.60
2016,08,27,00,57,4.80
2016,08,27,00,58,6.40
2016,08,27,00,59,8.10
2016,08,27,01,00,6.40
2016,08,27,01,01,6.40
2016,08,27,01,02,4.80
2016,08,27,01,03,1.60
2016,08,27,01,04,1.60
2016,08,27,01,05,1.60
2016,08,27,01,06,3.20
2016,08,27,01,07,3.20
2016,08,27,01,08,4.80
2016,08,27,01,09,8.10
2016,08,27,01,10,8.10
2016,08,27,01,11,8.10
2016,08,27,01,12,6.40
2016,08,27,01,13,4.80
2016,08,27,01,14,3.20
2016,08,27,01,15,3.20
2016,08,27,01,16,1.60
2016,08,27,01,18,3.20
2016,08,27,01,19,3.20
2016,08,27,01,20,1.60
2016,08,27,01,21,3.20
2016,08,27,01,22,3.20
2016,08,27,01,23,1.60
2016,08,27,01,24,1.60
2016,08,27,01,25,3.20
2016,08,27,01,27,1.60
2016,08,27,01,28,1.60
2016,08,27,01,30,1.60
2016,08,27,01,33,3.20
2016,08,27,01,34,4.80
2016,08,27,01,35,3.20
2016,08,27,01,36,1.60
2016,08,27,01,37,1.60
2016,08,27,01,38,3.20
2016,08,27,01,39,3.20
2016,08,27,01,40,3.20
2016,08,27,01,41,3.20
2016,08,27,01,43,1.60
2016,08,27,01,44,1.60
2016,08,27,01,45,3.20
2016,08,27,01,46,4.80
2016,08,27,01,47,4.80
2016,08,27,01,48,3.20
2016,08,27,01,49,3.20
2016,08,27,01,50,6.40
2016,08,27,01,51,4.80
2016,08,27,01,52,6.40
2016,08,27,01,53,4.80
2016,08,27,01,54,3.20
2016,08,27,01,55,1.60
2016,08,27,01,59,1.60
2016,08,27,02,00,3.20
2016,08,27,02,01,3.20
2016,08,27,02,02,3.20
2016,08,27,02,03,4.80
2016,08,27,02,04,4.80
2016,08,27,02,05,3.20
2016,08,27,02,06,3.20
2016,08,27,02,07,4.80
2016,08,27,02,08,4.80
2016,08,27,02,09,1.60
2016,08,27,02,10,3.20
2016,08,27,02,11,1.60
2016,08,27,02,13,1.60
2016,08,27,02,14,4.80
2016,08,27,02,15,3.20
2016,08,27,02,16,3.20
2016,08,27,02,17,4.80
2016,08,27,02,18,8.10
2016,08,27,02,19,6.40
2016,08,27,02,20,4.80
2016,08,27,02,21,3.20
2016,08,27,02,22,3.20
2016,08,27,02,23,3.20
2016,08,27,02,24,3.20
2016,08,27,02,25,3.20
2016,08,27,02,27,4.80
2016,08,27,02,28,6.40
2016,08,27,02,29,6.40
2016,08,27,02,30,6.40
2016,08,27,02,31,3.20
2016,08,27,02,32,1.60
2016,08,27,02,33,3.20
2016,08,27,02,34,4.80
2016,08,27,02,35,11.30
2016,08,27,02,36,11.30
2016,08,27,02,37,6.40
2016,08,27,02,38,4.80
2016,08,27,02,39,8.10
2016,08,27,02,40,11.30
2016,08,27,02,41,6.40
2016,08,27,02,42,6.40
2016,08,27,02,43,8.10
2016,08,27,02,44,11.30
2016,08,27,02,45,12.90
2016,08,27,02,46,6.40
2016,08,27,02,47,1.60
2016,08,27,02,48,4.80
2016,08,27,02,49,4.80
2016,08,27,02,50,3.20
2016,08,27,02,51,3.20
2016,08,27,02,52,6.40
2016,08,27,02,53,4.80
2016,08,27,02,54,4.80
2016,08,27,02,55,8.10
2016,08,27,02,56,11.30
2016,08,27,02,57,9.60
2016,08,27,02,58,4.80
2016,08,27,02,59,3.20
2016,08,27,03,00,3.20
2016,08,27,03,01,3.20
2016,08,27,03,02,3.20
2016,08,27,03,03,8.10
2016,08,27,03,04,8.10
2016,08,27,03,05,4.80
2016,08,27,03,06,12.90
2016,08,27,03,07,12.90
2016,08,27,03,08,14.50
2016,08,27,03,09,3.20
2016,08,27,03,10,6.40
2016,08,27,03,11,6.40
2016,08,27,03,12,8.10
2016,08,27,03,13,4.80
2016,08,27,03,14,1.60
2016,08,27,03,15,8.10
2016,08,27,03,16,8.10
2016,08,27,03,17,6.40
2016,08,27,03,18,6.40
2016,08,27,03,19,6.40
2016,08,27,03,20,9.60
2016,08,27,03,21,8.10
2016,08,27,03,22,4.80
2016,08,27,03,23,9.60
2016,08,27,03,24,17.70
2016,08,27,03,25,19.30
2016,08,27,03,26,19.30
2016,08,27,03,27,24.20
2016,08,27,03,28,11.30
2016,08,27,03,29,9.60
2016,08,27,03,30,12.90
2016,08,27,03,31,12.90
2016,08,27,03,32,14.50
2016,08,27,03,33,14.50
2016,08,27,03,34,12.90
2016,08,27,03,35,11.30
2016,08,27,03,36,9.60
2016,08,27,03,37,14.50
2016,08,27,03,38,9.60
2016,08,27,03,39,8.10
2016,08,27,03,40,11.30
2016,08,27,03,41,9.60
2016,08,27,03,42,11.30
2016,08,27,03,43,14.50
2016,08,27,03,44,16.10
2016,08,27,03,45,9.60
2016,08,27,03,46,6.40
2016,08,27,03,47,3.20
2016,08,27,03,48,4.80
2016,08,27,03,49,19.30
2016,08,27,03,50,16.10
2016,08,27,03,51,9.60
2016,08,27,03,52,14.50
2016,08,27,03,53,11.30
2016,08,27,03,54,6.40
2016,08,27,03,55,9.60
2016,08,27,03,56,22.50
2016,08,27,03,57,8.10
2016,08,27,03,58,19.30
2016,08,27,03,59,17.70
2016,08,27,04,00,9.60
2016,08,27,04,01,12.90
2016,08,27,04,02,6.40
2016,08,27,04,03,17.70
2016,08,27,04,04,12.90
2016,08,27,04,05,9.60
2016,08,27,04,06,12.90
2016,08,27,04,07,11.30
2016,08,27,04,08,11.30
2016,08,27,04,09,8.10
2016,08,27,04,10,17.70
2016,08,27,04,11,14.50
2016,08,27,04,12,12.90
2016,08,27,04,13,14.50
2016,08,27,04,14,14.50
2016,08,27,04,15,6.40
2016,08,27,04,16,9.60
2016,08,27,04,17,6.40
2016,08,27,04,18,4.80
2016,08,27,04,19,9.60
2016,08,27,04,20,19.30
2016,08,27,04,21,17.70
2016,08,27,04,22,9.60
2016,08,27,04,23,9.60
2016,08,27,04,24,11.30
2016,08,27,04,25,11.30
2016,08,27,04,26,17.70
2016,08,27,04,27,16.10
2016,08,27,04,28,20.90
2016,08,27,04,29,16.10
2016,08,27,04,30,6.40
2016,08,27,04,31,14.50
2016,08,27,04,32,8.10
2016,08,27,04,33,9.60
2016,08,27,04,34,9.60
2016,08,27,04,35,4.80
2016,08,27,04,36,4.80
2016,08,27,04,37,11.30
2016,08,27,04,38,9.60
2016,08,27,04,39,9.60
2016,08,27,04,40,9.60
2016,08,27,04,41,14.50
2016,08,27,04,42,11.30
2016,08,27,04,43,16.10
2016,08,27,04,44,19.30
2016,08,27,04,45,9.60
2016,08,27,04,46,16.10
2016,08,27,04,47,20.90
2016,08,27,04,48,16.10
2016,08,27,04,49,19.30
2016,08,27,04,50,14.50
2016,08,27,04,51,6.40
2016,08,27,04,52,16.10
2016,08,27,04,53,12.90
2016,08,27,04,54,12.90
2016,08,27,04,55,19.30
2016,08,27,04,56,16.10
2016,08,27,04,57,17.70
2016,08,27,04,58,12.90
2016,08,27,04,59,16.10
2016,08,27,05,00,14.50
2016,08,27,05,01,12.90
2016,08,27,05,02,12.90
2016,08,27,05,03,9.60
2016,08,27,05,04,11.30
2016,08,27,05,05,17.70
2016,08,27,05,06,16.10
2016,08,27,05,07,14.50
2016,08,27,05,08,14.50
2016,08,27,05,09,16.10
2016,08,27,05,10,17.70
2016,08,27,05,11,14.50
2016,08,27,05,12,11.30
2016,08,27,05,13,11.30
2016,08,27,05,14,11.30
2016,08,27,05,15,14.50
2016,08,27,05,16,14.50
2016,08,27,05,17,9.60
2016,08,27,05,18,6.40
2016,08,27,05,19,16.10
2016,08,27,05,20,19.30
2016,08,27,05,21,8.10
2016,08,27,05,22,16.10
2016,08,27,05,23,16.10
2016,08,27,05,24,17.70
2016,08,27,05,25,12.90
2016,08,27,05,26,11.30
2016,08,27,05,27,12.90
2016,08,27,05,28,6.40
2016,08,27,05,29,11.30
2016,08,27,05,30,11.30
2016,08,27,05,31,16.10
2016,08,27,05,32,11.30
2016,08,27,05,33,8.10
2016,08,27,05,34,4.80
2016,08,27,05,35,14.50
2016,08,27,05,36,12.90
2016,08,27,05,37,8.10
2016,08,27,05,38,8.10
2016,08,27,05,39,9.60
2016,08,27,05,40,8.10
2016,08,27,05,41,9.60
2016,08,27,05,42,9.60
2016,08,27,05,43,14.50
2016,08,27,05,44,11.30
2016,08,27,05,45,12.90
2016,08,27,05,46,16.10
2016,08,27,05,47,16.10
2016,08,27,05,48,11.30
2016,08,27,05,49,16.10
2016,08,27,05,50,12.90
2016,08,27,05,51,8.10
2016,08,27,05,52,11.30
2016,08,27,05,53,12.90
2016,08,27,05,54,11.30
2016,08,27,05,55,14.50
2016,08,27,05,56,11.30
2016,08,27,05,57,16.10
2016,08,27,05,58,12.90
2016,08,27,05,59,6.40
2016,08,27,06,00,17.70
2016,08,27,06,01,19.30
2016,08,27,06,02,9.60
2016,08,27,06,03,11.30
2016,08,27,06,04,17.70
2016,08,27,06,05,11.30
2016,08,27,06,06,11.30
2016,08,27,06,07,8.10
2016,08,27,06,08,8.10
2016,08,27,06,09,4.80
2016,08,27,06,10,12.90
2016,08,27,06,11,12.90
2016,08,27,06,12,6.40
2016,08,27,06,13,14.50
2016,08,27,06,14,16.10
2016,08,27,06,15,6.40
2016,08,27,06,16,16.10
2016,08,27,06,17,11.30
2016,08,27,06,18,9.60
2016,08,27,06,19,12.90
2016,08,27,06,20,17.70
2016,08,27,06,21,14.50
2016,08,27,06,22,17.70
2016,08,27,06,23,12.90
2016,08,27,06,24,12.90
2016,08,27,06,25,17.70
2016,08,27,06,26,16.10
2016,08,27,06,27,12.90
2016,08,27,06,28,4.80
2016,08,27,06,29,4.80
2016,08,27,06,30,6.40
2016,08,27,06,31,11.30
2016,08,27,06,32,14.50
2016,08,27,06,33,11.30
2016,08,27,06,34,12.90
2016,08,27,06,35,11.30
2016,08,27,06,36,9.60
2016,08,27,06,37,6.40
2016,08,27,06,38,14.50
2016,08,27,06,39,16.10
2016,08,27,06,40,11.30
2016,08,27,06,41,4.80
2016,08,27,06,42,8.10
2016,08,27,06,43,8.10
2016,08,27,06,44,12.90
2016,08,27,06,45,20.90
2016,08,27,06,46,9.60
2016,08,27,06,47,14.50
2016,08,27,06,48,9.60
2016,08,27,06,49,11.30
2016,08,27,06,50,17.70
2016,08,27,06,51,8.10
2016,08,27,06,52,3.20
2016,08,27,06,53,8.10
2016,08,27,06,54,4.80
2016,08,27,06,55,8.10
2016,08,27,06,56,11.30
2016,08,27,06,57,8.10
2016,08,27,06,58,9.60
2016,08,27,06,59,6.40
2016,08,27,07,00,6.40
2016,08,27,07,01,6.40
2016,08,27,07,02,6.40
2016,08,27,07,03,4.80
2016,08,27,07,04,4.80
2016,08,27,07,05,8.10
2016,08,27,07,06,3.20
2016,08,27,07,07,4.80
2016,08,27,07,08,4.80
2016,08,27,07,09,8.10
2016,08,27,07,10,8.10
2016,08,27,07,11,16.10
2016,08,27,07,12,12.90
2016,08,27,07,13,12.90
2016,08,27,07,14,11.30
2016,08,27,07,15,6.40
2016,08,27,07,16,6.40
2016,08,27,07,17,6.40
2016,08,27,07,18,9.60
2016,08,27,07,19,4.80
2016,08,27,07,20,8.10
2016,08,27,07,21,14.50
2016,08,27,07,22,12.90
2016,08,27,07,23,8.10
2016,08,27,07,24,17.70
2016,08,27,07,25,6.40
2016,08,27,07,26,11.30
2016,08,27,07,27,11.30
2016,08,27,07,28,8.10
2016,08,27,07,29,14.50
2016,08,27,07,30,12.90
2016,08,27,07,31,11.30
2016,08,27,07,32,8.10
2016,08,27,07,33,6.40
2016,08,27,07,34,11.30
2016,08,27,07,35,16.10
2016,08,27,07,36,12.90
2016,08,27,07,37,8.10
2016,08,27,07,38,11.30
2016,08,27,07,39,9.60
2016,08,27,07,40,17.70
2016,08,27,07,41,16.10
2016,08,27,07,42,9.60
2016,08,27,07,43,9.60
2016,08,27,07,44,9.60
2016,08,27,07,45,12.90
2016,08,27,07,46,9.60
2016,08,27,07,47,4.80
2016,08,27,07,48,11.30
2016,08,27,07,49,14.50
2016,08,27,07,50,4.80
2016,08,27,07,51,6.40
2016,08,27,07,52,6.40
2016,08,27,07,53,4.80
2016,08,27,07,54,4.80
2016,08,27,07,55,19.30
2016,08,27,07,56,17.70
2016,08,27,07,57,14.50
2016,08,27,07,58,12.90
2016,08,27,07,59,9.60
2016,08,27,08,00,11.30
2016,08,27,08,01,16.10
2016,08,27,08,02,24.20
2016,08,27,08,03,17.70
2016,08,27,08,04,14.50
2016,08,27,08,05,14.50
2016,08,27,08,06,9.60
2016,08,27,08,07,6.40
2016,08,27,08,08,14.50
2016,08,27,08,09,11.30
2016,08,27,08,10,16.10
2016,08,27,08,11,19.30
2016,08,27,08,12,17.70
2016,08,27,08,13,24.20
2016,08,27,08,14,20.90
2016,08,27,08,15,25.70
2016,08,27,08,16,25.70
2016,08,27,08,17,33.80
2016,08,27,08,18,19.30
2016,08,27,08,19,14.50
2016,08,27,08,20,14.50
2016,08,27,08,21,12.90
2016,08,27,08,22,19.30
2016,08,27,08,23,32.20
2016,08,27,08,24,25.70
2016,08,27,08,25,16.10
2016,08,27,08,26,25.70
2016,08,27,08,27,16.10
2016,08,27,08,28,14.50
2016,08,27,08,29,14.50
2016,08,27,08,30,9.60
2016,08,27,08,31,16.10
2016,08,27,08,32,11.30
2016,08,27,08,33,12.90
2016,08,27,08,34,17.70
2016,08,27,08,35,12.90
2016,08,27,08,36,6.40
2016,08,27,08,37,17.70
2016,08,27,08,38,14.50
2016,08,27,08,39,11.30
2016,08,27,08,40,16.10
2016,08,27,08,41,16.10
2016,08,27,08,42,12.90
2016,08,27,08,43,11.30
2016,08,27,08,44,16.10
2016,08,27,08,45,14.50
2016,08,27,08,46,12.90
2016,08,27,08,47,12.90
2016,08,27,08,48,16.10
2016,08,27,08,49,24.20
2016,08,27,08,50,20.90
2016,08,27,08,51,12.90
2016,08,27,08,52,4.80
2016,08,27,08,53,8.10
2016,08,27,08,54,6.40
2016,08,27,08,55,22.50
2016,08,27,08,56,22.50
2016,08,27,08,57,14.50
2016,08,27,08,58,24.20
2016,08,27,08,59,20.90
2016,08,27,09,00,25.70
2016,08,27,09,01,32.20
2016,08,27,09,02,19.30
2016,08,27,09,03,22.50
2016,08,27,09,04,24.20
2016,08,27,09,05,17.70
2016,08,27,09,06,17.70
2016,08,27,09,07,22.50
2016,08,27,09,08,22.50
2016,08,27,09,09,27.40
2016,08,27,09,10,30.60
2016,08,27,09,11,25.70
2016,08,27,09,12,19.30
2016,08,27,09,13,27.40
2016,08,27,09,14,24.20
2016,08,27,09,15,27.40
2016,08,27,09,16,20.90
2016,08,27,09,17,20.90
2016,08,27,09,18,16.10
2016,08,27,09,19,22.50
2016,08,27,09,20,22.50
2016,08,27,09,21,12.90
2016,08,27,09,22,27.40
2016,08,27,09,23,24.20
2016,08,27,09,24,20.90
2016,08,27,09,25,32.20
2016,08,27,09,26,32.20
2016,08,27,09,27,22.50
2016,08,27,09,28,27.40
2016,08,27,09,29,46.70
2016,08,27,09,30,29.00
2016,08,27,09,31,29.00
2016,08,27,09,32,30.60
2016,08,27,09,33,30.60
2016,08,27,09,34,17.70
2016,08,27,09,35,37.00
2016,08,27,09,36,12.90
2016,08,27,09,37,14.50
2016,08,27,09,38,20.90
2016,08,27,09,39,14.50
2016,08,27,09,40,12.90
2016,08,27,09,41,22.50
2016,08,27,09,42,22.50
2016,08,27,09,43,29.00
2016,08,27,09,44,22.50
2016,08,27,09,45,19.30
2016,08,27,09,46,19.30
2016,08,27,09,47,27.40
2016,08,27,09,48,33.80
2016,08,27,09,49,29.00
2016,08,27,09,50,8.10
2016,08,27,09,51,16.10
2016,08,27,09,52,20.90
2016,08,27,09,53,12.90
2016,08,27,09,54,16.10
2016,08,27,09,55,11.30
2016,08,27,09,56,22.50
2016,08,27,09,57,17.70
2016,08,27,09,58,20.90
2016,08,27,09,59,25.70
2016,08,27,10,00,17.70
2016,08,27,10,01,24.20
2016,08,27,10,02,30.60
2016,08,27,10,03,17.70
2016,08,27,10,04,22.50
2016,08,27,10,05,22.50
2016,08,27,10,06,17.70
2016,08,27,10,07,17.70
2016,08,27,10,08,17.70
2016,08,27,10,09,12.90
2016,08,27,10,10,24.20
2016,08,27,10,11,29.00
2016,08,27,10,12,16.10
2016,08,27,10,13,35.40
2016,08,27,10,14,24.20
2016,08,27,10,15,30.60
2016,08,27,10,16,40.20
2016,08,27,10,17,25.70
2016,08,27,10,18,20.90
2016,08,27,10,19,22.50
2016,08,27,10,20,17.70
2016,08,27,10,21,17.70
2016,08,27,10,22,16.10
2016,08,27,10,23,8.10
2016,08,27,10,24,8.10
2016,08,27,10,25,16.10
2016,08,27,10,26,14.50
2016,08,27,10,27,12.90
2016,08,27,10,28,16.10
2016,08,27,10,29,6.40
2016,08,27,10,30,14.50
2016,08,27,10,31,20.90
2016,08,27,10,32,30.60
2016,08,27,10,33,24.20
2016,08,27,10,34,22.50
2016,08,27,10,35,14.50
2016,08,27,10,36,8.10
2016,08,27,10,37,8.10
2016,08,27,10,38,25.70
2016,08,27,10,39,12.90
2016,08,27,10,40,24.20
2016,08,27,10,41,27.40
2016,08,27,10,42,16.10
2016,08,27,10,43,9.60
2016,08,27,10,44,9.60
2016,08,27,10,45,12.90
2016,08,27,10,46,17.70
2016,08,27,10,47,14.50
2016,08,27,10,48,14.50
2016,08,27,10,49,16.10
2016,08,27,10,50,14.50
2016,08,27,10,51,14.50
2016,08,27,10,52,29.00
2016,08,27,10,53,25.70
2016,08,27,10,54,11.30
2016,08,27,10,55,12.90
2016,08,27,10,56,19.30
2016,08,27,10,57,6.40
2016,08,27,10,58,11.30
2016,08,27,10,59,20.90
2016,08,27,11,00,12.90
2016,08,27,11,01,12.90
2016,08,27,11,02,8.10
2016,08,27,11,03,16.10
2016,08,27,11,04,12.90
2016,08,27,11,05,6.40
2016,08,27,11,06,9.60
2016,08,27,11,07,16.10
2016,08,27,11,08,16.10
2016,08,27,11,09,14.50
2016,08,27,11,10,11.30
2016,08,27,11,11,6.40
2016,08,27,11,12,11.30
2016,08,27,11,13,16.10
2016,08,27,11,14,8.10
2016,08,27,11,15,12.90
2016,08,27,11,16,14.50
2016,08,27,11,17,12.90
2016,08,27,11,18,9.60
2016,08,27,11,19,11.30
2016,08,27,11,20,8.10
2016,08,27,11,21,19.30
2016,08,27,11,22,16.10
2016,08,27,11,23,17.70
2016,08,27,11,24,24.20
2016,08,27,11,25,25.70
2016,08,27,11,26,25.70
2016,08,27,11,27,17.70
2016,08,27,11,28,9.60
2016,08,27,11,29,11.30
2016,08,27,11,30,12.90
2016,08,27,11,31,11.30
2016,08,27,11,32,8.10
2016,08,27,11,33,4.80
2016,08,27,11,34,3.20
2016,08,27,11,35,12.90
2016,08,27,11,36,11.30
2016,08,27,11,37,9.60
2016,08,27,11,38,16.10
2016,08,27,11,39,30.60
2016,08,27,11,40,22.50
2016,08,27,11,41,11.30
2016,08,27,11,42,12.90
2016,08,27,11,43,9.60
2016,08,27,11,44,8.10
2016,08,27,11,45,6.40
2016,08,27,11,46,12.90
2016,08,27,11,47,11.30
2016,08,27,11,48,9.60
2016,08,27,11,49,20.90
2016,08,27,11,50,9.60
2016,08,27,11,51,8.10
2016,08,27,11,52,16.10
2016,08,27,11,53,11.30
2016,08,27,11,54,12.90
2016,08,27,11,55,12.90
2016,08,27,11,56,17.70
2016,08,27,11,57,14.50
2016,08,27,11,58,9.60
2016,08,27,11,59,14.50
2016,08,27,12,00,16.10
2016,08,27,12,01,11.30
2016,08,27,12,02,11.30
2016,08,27,12,03,11.30
2016,08,27,12,04,16.10
2016,08,27,12,05,22.50
2016,08,27,12,06,17.70
2016,08,27,12,07,19.30
2016,08,27,12,08,12.90
2016,08,27,12,09,16.10
2016,08,27,12,10,12.90
2016,08,27,12,11,17.70
2016,08,27,12,12,22.50
2016,08,27,12,13,16.10
2016,08,27,12,14,11.30
2016,08,27,12,15,9.60
2016,08,27,12,16,11.30
2016,08,27,12,17,11.30
2016,08,27,12,18,12.90
2016,08,27,12,19,9.60
2016,08,27,12,20,9.60
2016,08,27,12,21,16.10
2016,08,27,12,22,25.70
2016,08,27,12,23,14.50
2016,08,27,12,24,25.70
2016,08,27,12,25,24.20
2016,08,27,12,26,19.30
2016,08,27,12,27,16.10
2016,08,27,12,28,11.30
2016,08,27,12,29,14.50
2016,08,27,12,30,16.10
2016,08,27,12,31,14.50
2016,08,27,12,32,25.70
2016,08,27,12,33,19.30
2016,08,27,12,34,8.10
2016,08,27,12,35,16.10
2016,08,27,12,36,22.50
2016,08,27,12,37,17.70
2016,08,27,12,38,11.30
2016,08,27,12,39,11.30
2016,08,27,12,40,29.00
2016,08,27,12,41,20.90
2016,08,27,12,42,17.70
2016,08,27,12,43,6.40
2016,08,27,12,44,16.10
2016,08,27,12,45,14.50
2016,08,27,12,46,29.00
2016,08,27,12,47,14.50
2016,08,27,12,48,14.50
2016,08,27,12,49,22.50
2016,08,27,12,50,11.30
2016,08,27,12,51,19.30
2016,08,27,12,52,14.50
2016,08,27,12,53,9.60
2016,08,27,12,54,11.30
2016,08,27,12,55,24.20
2016,08,27,12,56,20.90
2016,08,27,12,57,6.40
2016,08,27,12,58,8.10
2016,08,27,12,59,6.40
2016,08,27,13,00,12.90
2016,08,27,13,01,6.40
2016,08,27,13,02,11.30
2016,08,27,13,03,6.40
2016,08,27,13,04,29.00
2016,08,27,13,05,12.90
2016,08,27,13,06,12.90
2016,08,27,13,07,16.10
2016,08,27,13,08,12.90
2016,08,27,13,09,11.30
2016,08,27,13,10,6.40
2016,08,27,13,11,16.10
2016,08,27,13,12,9.60
2016,08,27,13,13,12.90
2016,08,27,13,14,11.30
2016,08,27,13,15,16.10
2016,08,27,13,16,16.10
2016,08,27,13,17,8.10
2016,08,27,13,18,24.20
2016,08,27,13,19,20.90
2016,08,27,13,20,14.50
2016,08,27,13,21,27.40
2016,08,27,13,22,22.50
2016,08,27,13,23,22.50
2016,08,27,13,24,19.30
2016,08,27,13,25,22.50
2016,08,27,13,26,27.40
2016,08,27,13,27,27.40
2016,08,27,13,28,12.90
2016,08,27,13,29,17.70
2016,08,27,13,30,27.40
2016,08,27,13,31,22.50
2016,08,27,13,32,19.30
2016,08,27,13,33,20.90
2016,08,27,13,34,17.70
2016,08,27,13,35,16.10
2016,08,27,13,36,17.70
2016,08,27,13,37,20.90
2016,08,27,13,38,16.10
2016,08,27,13,39,20.90
2016,08,27,13,40,12.90
2016,08,27,13,41,32.20
2016,08,27,13,42,16.10
2016,08,27,13,43,22.50
2016,08,27,13,44,22.50
2016,08,27,13,45,17.70
2016,08,27,13,46,27.40
2016,08,27,13,47,24.20
2016,08,27,13,48,16.10
2016,08,27,13,49,24.20
2016,08,27,13,50,22.50
2016,08,27,13,51,27.40
2016,08,27,13,52,27.40
2016,08,27,13,53,20.90
2016,08,27,13,54,27.40
2016,08,27,13,55,30.60
2016,08,27,13,56,30.60
2016,08,27,13,57,19.30
2016,08,27,13,58,16.10
2016,08,27,13,59,22.50
2016,08,27,14,00,20.90
2016,08,27,14,01,14.50
2016,08,27,14,02,19.30
2016,08,27,14,03,19.30
2016,08,27,14,04,19.30
2016,08,27,14,05,16.10
2016,08,27,14,06,20.90
2016,08,27,14,07,24.20
2016,08,27,14,08,8.10
2016,08,27,14,09,22.50
2016,08,27,14,10,22.50
2016,08,27,14,11,17.70
2016,08,27,14,12,30.60
2016,08,27,14,13,12.90
2016,08,27,14,14,19.30
2016,08,27,14,15,9.60
2016,08,27,14,16,22.50
2016,08,27,14,17,27.40
2016,08,27,14,18,11.30
2016,08,27,14,19,16.10
2016,08,27,14,20,16.10
2016,08,27,14,21,16.10
2016,08,27,14,22,12.90
2016,08,27,14,23,16.10
2016,08,27,14,24,20.90
2016,08,27,14,25,16.10
2016,08,27,14,26,25.70
2016,08,27,14,27,19.30
2016,08,27,14,28,17.70
2016,08,27,14,29,14.50
2016,08,27,14,30,12.90
2016,08,27,14,31,43.50
2016,08,27,14,32,19.30
2016,08,27,14,33,14.50
2016,08,27,14,34,22.50
2016,08,27,14,35,14.50
2016,08,27,14,36,17.70
2016,08,27,14,37,12.90
2016,08,27,14,38,30.60
2016,08,27,14,39,35.40
2016,08,27,14,40,17.70
2016,08,27,14,41,16.10
2016,08,27,14,42,16.10
2016,08,27,14,43,24.20
2016,08,27,14,44,25.70
2016,08,27,14,45,12.90
2016,08,27,14,46,20.90
2016,08,27,14,47,19.30
2016,08,27,14,48,25.70
2016,08,27,14,49,22.50
2016,08,27,14,50,35.40
2016,08,27,14,51,22.50
2016,08,27,14,52,16.10
2016,08,27,14,53,27.40
2016,08,27,14,54,22.50
2016,08,27,14,55,20.90
2016,08,27,14,56,22.50
2016,08,27,14,57,12.90
2016,08,27,14,58,11.30
2016,08,27,14,59,24.20
2016,08,27,15,00,17.70
2016,08,27,15,01,20.90
2016,08,27,15,02,16.10
2016,08,27,15,03,20.90
2016,08,27,15,04,6.40
2016,08,27,15,05,19.30
2016,08,27,15,06,16.10
2016,08,27,15,07,16.10
2016,08,27,15,08,4.80
2016,08,27,15,09,12.90
2016,08,27,15,10,16.10
2016,08,27,15,11,19.30
2016,08,27,15,12,22.50
2016,08,27,15,13,22.50
2016,08,27,15,14,12.90
2016,08,27,15,15,24.20
2016,08,27,15,16,19.30
2016,08,27,15,17,22.50
2016,08,27,15,18,22.50
2016,08,27,15,19,12.90
2016,08,27,15,20,20.90
2016,08,27,15,21,17.70
2016,08,27,15,22,11.30
2016,08,27,15,23,17.70
2016,08,27,15,24,19.30
2016,08,27,15,25,20.90
2016,08,27,15,26,17.70
2016,08,27,15,27,19.30
2016,08,27,15,28,12.90
2016,08,27,15,29,20.90
2016,08,27,15,30,16.10
2016,08,27,15,31,19.30
2016,08,27,15,32,6.40
2016,08,27,15,33,16.10
2016,08,27,15,34,11.30
2016,08,27,15,35,14.50
2016,08,27,15,36,11.30
2016,08,27,15,37,22.50
2016,08,27,15,38,19.30
2016,08,27,15,39,17.70
2016,08,27,15,40,11.30
2016,08,27,15,41,14.50
2016,08,27,15,42,12.90
2016,08,27,15,43,14.50
2016,08,27,15,44,17.70
2016,08,27,15,45,11.30
2016,08,27,15,46,11.30
2016,08,27,15,47,16.10
2016,08,27,15,48,14.50
2016,08,27,15,49,14.50
2016,08,27,15,50,12.90
2016,08,27,15,51,14.50
2016,08,27,15,52,16.10
2016,08,27,15,53,19.30
2016,08,27,15,54,25.70
2016,08,27,15,55,17.70
2016,08,27,15,56,11.30
2016,08,27,15,57,17.70
2016,08,27,15,58,16.10
2016,08,27,15,59,24.20
2016,08,27,16,00,19.30
2016,08,27,16,01,14.50
2016,08,27,16,02,12.90
2016,08,27,16,03,12.90
2016,08,27,16,04,24.20
2016,08,27,16,05,16.10
2016,08,27,16,06,12.90
2016,08,27,16,07,12.90
2016,08,27,16,08,24.20
2016,08,27,16,09,37.00
2016,08,27,16,10,17.70
2016,08,27,16,11,19.30
2016,08,27,16,12,14.50
2016,08,27,16,13,16.10
2016,08,27,16,14,22.50
2016,08,27,16,15,16.10
2016,08,27,16,16,22.50
2016,08,27,16,17,12.90
2016,08,27,16,18,20.90
2016,08,27,16,19,27.40
2016,08,27,16,20,17.70
2016,08,27,16,21,14.50
2016,08,27,16,22,12.90
2016,08,27,16,23,12.90
2016,08,27,16,24,14.50
2016,08,27,16,25,17.70
2016,08,27,16,26,16.10
2016,08,27,16,27,6.40
2016,08,27,16,28,17.70
2016,08,27,16,29,14.50
2016,08,27,16,30,19.30
2016,08,27,16,31,12.90
2016,08,27,16,32,22.50
2016,08,27,16,33,14.50
2016,08,27,16,34,17.70
2016,08,27,16,35,22.50
2016,08,27,16,36,12.90
2016,08,27,16,37,8.10
2016,08,27,16,38,4.80
2016,08,27,16,39,14.50
2016,08,27,16,40,14.50
2016,08,27,16,41,11.30
2016,08,27,16,42,17.70
2016,08,27,16,43,8.10
2016,08,27,16,44,14.50
2016,08,27,16,45,11.30
2016,08,27,16,46,14.50
2016,08,27,16,47,12.90
2016,08,27,16,48,17.70
2016,08,27,16,49,20.90
2016,08,27,16,50,11.30
2016,08,27,16,51,11.30
2016,08,27,16,52,14.50
2016,08,27,16,53,12.90
2016,08,27,16,54,11.30
2016,08,27,16,55,14.50
2016,08,27,16,56,12.90
2016,08,27,16,57,17.70
2016,08,27,16,58,30.60
2016,08,27,16,59,14.50
2016,08,27,17,00,12.90
2016,08,27,17,01,14.50
2016,08,27,17,02,16.10
2016,08,27,17,03,17.70
2016,08,27,17,04,17.70
2016,08,27,17,05,19.30
2016,08,27,17,06,14.50
2016,08,27,17,07,16.10
2016,08,27,17,08,6.40
2016,08,27,17,09,11.30
2016,08,27,17,10,11.30
2016,08,27,17,11,9.60
2016,08,27,17,12,4.80
2016,08,27,17,13,9.60
2016,08,27,17,14,9.60
2016,08,27,17,15,9.60
2016,08,27,17,16,14.50
2016,08,27,17,17,16.10
2016,08,27,17,18,24.20
2016,08,27,17,19,14.50
2016,08,27,17,20,11.30
2016,08,27,17,21,12.90
2016,08,27,17,22,11.30
2016,08,27,17,23,12.90
2016,08,27,17,24,14.50
2016,08,27,17,25,19.30
2016,08,27,17,26,12.90
2016,08,27,17,27,14.50
2016,08,27,17,28,22.50
2016,08,27,17,29,8.10
2016,08,27,17,30,3.20
2016,08,27,17,31,14.50
2016,08,27,17,32,11.30
2016,08,27,17,33,16.10
2016,08,27,17,34,11.30
2016,08,27,17,35,11.30
2016,08,27,17,36,8.10
2016,08,27,17,37,14.50
2016,08,27,17,38,6.40
2016,08,27,17,39,9.60
2016,08,27,17,40,3.20
2016,08,27,17,41,12.90
2016,08,27,17,42,9.60
2016,08,27,17,43,11.30
2016,08,27,17,44,6.40
2016,08,27,17,45,12.90
2016,08,27,17,46,14.50
2016,08,27,17,47,6.40
2016,08,27,17,48,14.50
2016,08,27,17,49,16.10
2016,08,27,17,50,6.40
2016,08,27,17,51,12.90
2016,08,27,17,52,11.30
2016,08,27,17,53,6.40
2016,08,27,17,54,8.10
2016,08,27,17,55,6.40
2016,08,27,17,56,14.50
2016,08,27,17,57,16.10
2016,08,27,17,58,9.60
2016,08,27,17,59,3.20